Theta_e
296 298 298 296 296 298 296 297 292 295 299 310 313 313 316 314 317 323 325 324 323 322 323 325 324 324 324 323 320 319 318 315 313 310 308 306 305 305 306 307 305 306 306 305
292 297 297 295 298 299 300 298 296 299 301 312 317 315 313 315 318 320 324 324 323 324 324 325 324 323 323 321 323 323 317 313 311 310 308 309 306 307 305 304 302 300 300 301
287 295 295 291 298 300 300 299 300 299 304 313 311 312 313 317 322 322 324 324 323 324 324 324 323 323 321 322 322 320 317 314 312 313 310 306 305 304 303 299 298 297 297 298
288 291 285 297 304 304 302 303 309 308 311 313 315 315 314 320 321 322 324 324 323 323 322 323 323 321 320 321 319 317 316 314 313 309 308 308 307 304 300 299 299 298 296 295
288 289 295 304 309 305 306 304 313 310 313 315 314 314 313 323 324 324 323 323 323 322 322 320 319 319 319 318 316 314 310 312 312 310 310 310 307 305 305 304 300 299 297 295
292 289 289 299 310 315 312 299 315 315 314 313 314 307 313 322 323 322 323 322 320 320 319 317 317 318 316 314 310 309 311 311 311 314 315 312 309 304 303 301 300 300 298 298
290 288 295 307 313 314 300 300 316 317 317 316 312 315 317 322 321 322 321 320 320 319 317 316 317 317 313 310 309 311 312 312 314 314 311 309 306 304 302 301 300 299 300 302
292 290 288 311 311 304 307 312 318 319 319 318 316 318 319 319 319 319 319 319 319 317 316 318 317 313 310 310 311 313 313 313 313 310 311 307 305 303 303 301 300 302 305 304
298 299 307 312 310 315 319 318 320 320 320 318 317 319 319 317 317 318 319 319 319 317 315 316 315 313 310 309 310 312 312 310 309 310 309 306 304 303 301 304 303 304 305 304
301 306 308 312 315 318 322 320 320 318 319 319 317 318 318 317 317 318 318 318 318 316 315 313 310 311 312 310 311 312 310 309 309 308 306 307 308 309 307 305 302 302 301 300
302 308 311 314 316 316 320 322 320 320 320 319 318 317 317 316 317 317 317 317 317 315 313 310 310 310 312 311 311 310 310 310 308 307 307 306 303 301 301 295 297 298 297 298
301 308 308 311 316 318 320 321 321 319 318 319 318 317 317 316 316 317 316 317 316 315 311 310 311 311 311 310 310 309 308 307 306 308 302 298 296 294 294 294 294 294 295 296
305 313 313 315 317 323 320 321 321 319 319 316 317 317 316 315 315 314 316 315 312 312 312 311 311 310 312 312 312 310 307 305 307 303 300 297 296 295 295 297 295 294 294 294
312 312 312 320 319 322 321 321 319 319 318 317 316 316 315 314 313 312 312 312 313 312 312 312 311 310 313 313 313 312 309 303 309 305 303 299 297 298 299 296 293 295 295 294
313 314 316 321 320 320 319 319 316 315 314 314 315 314 314 313 312 312 313 314 314 312 312 313 313 312 314 315 315 311 311 306 308 305 302 301 301 301 301 297 295 295 295 295
315 316 318 319 318 318 318 317 315 314 314 314 313 313 314 314 314 313 312 313 310 309 311 312 312 313 316 313 310 309 308 303 301 302 301 300 300 300 300 300 298 298 297 295
311 314 314 316 317 317 317 318 316 315 314 313 313 314 314 313 312 311 311 311 310 309 311 310 310 312 310 308 306 304 304 303 300 301 300 300 301 301 300 299 299 298 297 292
317 317 319 319 318 317 317 316 316 315 313 314 314 313 312 311 311 309 307 306 305 306 308 309 311 309 309 307 306 305 304 303 303 303 302 302 301 299 299 299 298 294 292 292
319 319 320 320 320 319 317 316 316 316 315 315 314 312 312 310 309 306 305 305 305 304 305 308 305 307 307 306 306 307 304 303 301 300 301 298 297 296 297 296 295 294 293 293
318 320 321 320 320 318 316 317 317 315 315 314 313 310 309 308 307 306 305 305 306 307 306 306 306 305 305 304 300 305 305 306 307 304 297 295 295 293 295 293 295 294 294 295
319 320 319 318 318 318 317 316 316 315 314 314 311 310 308 306 308 305 303 303 304 304 306 303 305 304 303 300 300 302 303 302 300 297 296 295 293 292 292 295 296 296 296 296
320 319 318 317 316 316 316 316 316 315 313 312 312 311 308 307 306 304 305 305 305 297 302 303 305 300 302 297 304 302 302 301 299 297 297 296 296 294 292 293 295 296 296 295
318 317 318 317 316 315 316 316 315 315 313 312 312 310 309 309 308 305 303 306 306 300 303 303 295 290 289 302 301 303 303 302 301 299 298 297 296 295 295 293 295 296 296 295
316 315 316 316 315 315 313 314 315 315 315 314 314 313 310 306 304 305 306 299 298 297 304 301 294 288 289 300 300 299 303 304 300 300 299 295 298 296 296 295 295 296 296 294
315 314 314 314 313 313 313 314 314 313 314 313 312 312 312 312 311 308 307 306 295 300 304 289 289 287 298 300 300 300 298 297 297 299 301 303 300 298 298 297 296 296 297 297
313 313 314 314 314 313 313 314 312 311 312 310 309 310 308 307 307 307 307 302 303 299 303 298 297 296 298 299 299 298 297 296 296 297 298 302 302 298 299 298 297 297 297 298
315 307 312 310 312 312 313 312 311 309 311 312 310 308 308 307 306 306 302 304 304 303 302 299 297 296 297 297 297 298 297 296 294 298 299 301 301 300 298 300 299 298 298 299
Wind_Speed
20 22 18 25 20 25 17 21 10 13 12 22 23 21 16 4 8 14 15 13 13 14 12 10 11 10 8 9 7 7 8 8 7 7 7 7 7 7 7 8 7 7 8 7
18 21 18 24 23 27 22 20 10 6 8 13 13 10 12 12 13 13 14 15 15 13 14 12 12 11 9 8 9 8 7 7 6 6 6 7 7 7 7 7 7 7 7 7
19 21 12 18 26 27 24 8 11 11 9 18 16 19 19 17 18 19 20 19 17 15 14 11 11 11 11 10 9 9 10 7 7 6 7 6 6 7 7 6 6 7 6 6
11 6 15 16 15 22 17 12 7 5 20 27 32 26 11 8 8 15 18 16 16 12 10 9 8 8 10 10 9 9 8 7 6 7 7 6 6 7 6 4 5 4 5 5
6 4 11 4 5 8 9 9 5 9 14 17 12 10 2 7 12 13 16 15 13 11 13 11 10 10 11 10 8 8 7 7 6 6 6 6 6 5 4 4 3 4 4 5
4 3 6 7 4 4 3 5 7 15 23 22 20 12 12 14 17 14 14 14 14 12 12 12 9 11 11 9 8 7 7 7 6 5 6 6 6 6 2 2 3 4 3 1
6 5 13 6 4 2 6 9 16 25 28 26 23 3 13 18 15 16 14 15 14 13 12 12 10 10 10 9 7 6 7 6 6 5 6 6 5 3 4 3 3 3 3 2
5 6 12 3 4 5 4 3 14 18 18 17 13 19 23 20 19 18 18 16 13 12 10 9 10 10 10 8 7 6 7 6 6 6 4 4 7 4 3 4 3 3 2 2
4 7 5 8 6 7 4 3 6 15 14 19 21 21 21 19 18 17 18 14 11 12 11 8 8 10 10 7 7 7 7 6 6 6 5 5 5 5 3 4 4 3 3 2
4 4 6 8 3 15 9 10 11 12 16 19 22 20 20 17 16 15 14 13 11 13 11 8 6 7 10 9 7 8 7 6 5 6 4 3 2 2 2 2 2 2 1 1
7 11 10 3 6 8 7 11 15 12 12 17 21 18 18 17 15 14 13 12 12 12 10 9 8 8 8 7 7 7 6 6 5 4 5 3 4 2 2 3 2 2 1 1
4 6 5 8 9 9 4 9 14 20 13 11 19 19 18 14 12 13 13 12 12 11 10 9 9 8 7 7 7 7 6 5 5 4 4 4 4 3 6 5 6 0 5 3
7 5 6 9 9 7 6 4 9 15 16 16 11 15 16 15 10 13 13 11 11 11 10 9 9 8 6 7 7 7 7 6 4 4 4 4 4 4 4 2 2 2 2 4
11 4 5 2 3 9 14 11 10 11 14 15 17 13 13 13 13 13 11 9 10 11 10 9 9 7 7 7 7 6 6 8 6 6 5 5 4 4 3 4 3 2 1 1
8 6 6 5 16 12 13 14 14 13 15 14 13 15 14 14 13 12 9 10 10 10 7 7 7 6 6 6 7 7 6 4 5 5 4 4 4 4 3 3 3 2 1 1
2 5 6 4 17 17 14 10 11 11 13 14 14 14 13 12 11 10 8 8 11 8 7 7 7 6 6 7 6 5 5 7 6 5 4 4 3 3 4 4 4 4 3 3
5 8 9 7 11 11 9 8 8 10 13 14 14 14 13 12 10 10 9 9 8 8 7 7 7 6 6 7 7 5 4 5 7 4 4 4 3 5 4 4 4 4 4 3
9 4 10 10 22 20 14 10 11 12 12 13 13 13 12 12 11 9 8 7 7 6 7 7 8 7 7 7 6 5 4 5 4 5 4 4 4 4 4 4 5 4 3 1
6 6 8 13 17 20 18 15 13 11 11 13 13 13 11 9 9 8 9 9 8 8 6 6 10 9 7 7 7 5 5 5 4 3 3 3 4 4 4 5 5 5 4 4
7 7 9 9 13 19 18 15 14 11 11 12 10 10 10 8 8 9 9 11 11 7 9 7 7 7 7 7 8 5 5 5 5 4 4 4 4 4 4 5 5 5 5 5
6 8 16 14 15 16 19 16 15 14 12 13 13 11 10 7 9 9 7 6 4 5 8 10 6 4 4 6 6 5 5 3 3 5 5 5 5 4 5 5 5 5 5 4
5 9 13 14 15 15 18 16 14 13 12 12 11 10 11 8 8 5 2 7 5 10 5 5 5 7 5 9 5 5 4 3 4 4 4 4 5 5 5 5 5 5 5 5
3 3 11 15 16 16 16 14 13 14 13 12 12 12 12 9 9 8 5 4 5 8 5 5 6 8 9 5 4 4 5 5 5 6 5 5 5 6 5 6 6 5 5 5
1 9 12 12 14 15 15 10 13 13 13 12 12 12 11 7 2 1 3 8 11 9 6 5 6 7 7 4 4 4 4 4 2 5 5 5 5 4 5 5 6 5 5 5
5 9 13 15 14 10 13 12 11 10 10 9 10 10 9 8 9 8 5 5 10 8 5 6 6 6 5 5 5 4 4 4 5 3 5 7 5 6 5 5 6 6 5 5
5 4 7 13 12 11 10 11 9 8 8 7 4 5 5 4 5 6 5 7 7 8 5 5 5 5 5 5 5 5 4 4 4 4 5 6 6 5 5 5 5 6 6 6
5 4 7 5 5 8 10 10 11 9 8 10 8 5 6 5 5 6 6 5 5 6 5 5 4 5 5 4 4 4 4 3 5 5 5 5 5 5 6 6 5 5 5 5
Wind_Direction
259 262 264 271 272 278 267 246 183 233 196 186 191 193 186 211 179 166 158 148 133 140 146 125 117 122 126 119 115 106 90 86 89 88 91 91 84 71 65 59 64 71 71 52
255 264 249 256 254 265 260 261 240 188 217 199 172 143 200 194 197 176 158 150 148 147 133 137 140 143 134 130 123 110 96 104 105 110 96 89 82 89 92 85 65 69 60 68
269 260 274 263 235 245 244 206 193 197 205 151 168 185 202 192 192 170 161 156 152 146 144 146 148 144 138 133 129 127 124 124 120 105 86 77 88 81 75 77 83 77 71 77
268 271 239 242 215 217 220 232 198 104 156 171 178 191 163 182 163 151 150 147 141 141 129 126 126 120 123 128 122 120 121 107 97 110 122 118 106 112 106 95 84 79 65 55
248 245 290 209 146 158 165 233 212 164 172 159 124 110 69 161 151 155 145 141 133 137 128 126 133 137 127 115 109 113 111 116 126 134 123 114 109 113 103 102 80 66 54 43
239 309 267 201 151 61 185 274 175 153 155 149 149 163 183 151 137 133 132 131 128 128 121 127 141 135 123 116 115 125 130 133 140 126 121 129 132 118 94 99 109 102 96 95
253 253 273 252 276 252 142 238 168 166 164 160 173 134 128 131 127 132 136 130 124 130 135 134 134 126 119 127 137 134 123 133 135 124 128 130 119 115 132 128 123 147 168 192
184 202 258 198 271 211 282 258 171 162 160 144 111 121 132 130 132 135 135 131 134 130 125 133 130 129 128 128 140 135 132 131 129 138 135 123 126 136 155 156 188 230 227 247
271 231 289 315 281 271 295 191 125 142 141 130 126 137 135 134 136 136 136 137 135 130 126 128 133 137 137 147 142 139 136 145 151 143 137 142 149 153 158 200 205 235 243 263
293 239 260 264 310 18 21 53 74 98 123 128 132 137 134 133 133 132 137 136 134 131 136 130 126 129 140 149 150 143 148 151 153 146 159 181 141 159 154 189 222 250 311 278
281 284 304 314 22 7 348 110 98 96 114 130 130 132 136 134 135 135 135 135 138 136 135 141 139 136 141 148 147 152 149 156 161 171 173 148 85 45 98 75 175 159 184 160
250 268 278 276 335 317 242 144 150 124 122 141 139 137 136 132 133 136 136 134 130 134 135 145 145 147 151 150 151 146 148 161 171 149 134 120 124 90 44 67 41 202 168 141
261 197 259 277 260 245 106 82 111 125 132 138 132 133 129 130 137 132 129 131 136 144 145 149 154 160 163 159 151 155 155 156 137 120 139 161 160 155 160 333 13 65 100 154
243 260 292 346 111 109 108 110 118 129 136 134 134 131 130 129 133 126 135 141 139 141 146 152 156 174 176 166 155 157 163 164 167 169 170 174 174 181 171 176 203 236 230 166
248 212 250 174 103 96 103 125 130 138 134 133 134 133 132 137 138 138 133 137 140 143 145 151 161 192 180 170 163 158 165 175 161 165 179 170 172 197 193 187 210 220 204 327
202 236 242 201 121 128 120 122 136 153 141 135 136 137 139 138 135 129 125 127 132 157 159 160 177 189 178 166 153 151 165 154 148 163 163 184 194 166 186 193 193 205 204 215
220 202 207 219 98 78 105 129 159 159 147 144 142 140 138 134 132 134 143 146 150 156 166 161 181 157 146 146 147 152 152 152 152 142 172 189 180 205 210 192 196 195 211 205
225 267 210 205 138 146 160 156 159 165 157 144 138 139 141 148 155 155 146 132 117 126 166 165 160 152 153 149 141 149 150 152 162 181 192 197 194 189 172 169 167 170 196 194
205 235 192 183 172 156 146 150 158 153 149 146 145 147 146 140 147 137 131 136 139 148 200 162 160 151 156 160 147 153 154 166 181 206 207 187 176 168 165 175 172 188 183 188
233 220 202 177 171 146 140 139 148 144 147 147 129 129 137 137 134 135 144 158 170 173 151 166 158 161 157 164 142 154 167 186 204 197 164 173 167 170 182 189 181 192 196 203
260 224 176 173 167 148 137 141 145 150 153 148 145 153 149 138 141 138 128 150 217 153 151 150 158 166 163 153 153 153 161 200 175 165 184 177 162 174 190 196 199 194 204 204
309 210 171 157 150 150 139 144 144 141 147 146 147 136 136 136 130 113 133 173 170 155 137 150 163 168 159 158 164 146 165 171 192 176 183 190 189 182 202 195 201 200 204 202
342 205 160 158 159 143 136 141 141 148 149 149 151 153 160 165 160 147 175 200 150 165 158 170 163 154 148 155 164 176 187 193 199 200 201 193 212 184 193 200 206 198 200 205
193 160 160 146 131 129 133 143 146 156 157 156 159 159 147 140 114 0 61 136 148 156 168 167 166 164 158 161 165 182 185 181 216 209 203 196 204 212 205 210 204 203 203 210
166 156 144 140 139 136 138 140 135 137 143 147 150 159 162 178 175 177 160 159 153 155 163 178 179 160 173 176 180 188 184 205 218 214 209 212 193 211 211 207 209 203 205 206
117 137 145 151 151 148 145 144 144 146 145 145 138 152 146 142 118 129 142 159 162 160 160 169 182 184 191 181 182 187 205 227 230 243 231 210 203 202 218 220 208 200 203 206
101 85 93 79 129 138 144 149 148 157 160 161 158 151 142 143 138 138 143 155 166 172 163 183 187 177 183 183 184 200 217 232 250 251 224 204 198 211 203 212 207 197 194 193